TimeEDT,TemperatureF,Dew PointF,Humidity,Sea Level PressureIn,VisibilityMPH,Wind Direction,Wind SpeedMPH,Gust SpeedMPH,PrecipitationIn,Events,Conditions,WindDirDegrees,DateUTC
1:53 AM,68.0,61.0,78,29.80,10.0,SW,20.7,29.9,N/A,,Overcast,220,2012-10-14 05:53:00
2:53 AM,68.0,61.0,78,29.80,10.0,SSW,15.0,-,N/A,,Overcast,210,2012-10-14 06:53:00
3:53 AM,66.9,61.0,81,29.78,10.0,SSW,16.1,-,N/A,,Scattered Clouds,200,2012-10-14 07:53:00
4:29 AM,66.2,62.6,88,29.77,10.0,SSW,10.4,-,N/A,,Overcast,210,2012-10-14 08:29:00
4:53 AM,66.9,62.1,84,29.75,10.0,South,11.5,21.9,0.00,Rain,Light Rain,190,2012-10-14 08:53:00
5:01 AM,66.2,62.6,88,29.75,9.0,South,11.5,20.7,0.00,Rain,Light Rain,190,2012-10-14 09:01:00
5:32 AM,66.2,62.6,88,29.74,6.0,South,11.5,-,0.01,Rain,Light Rain,190,2012-10-14 09:32:00
5:46 AM,66.2,62.6,88,29.73,6.0,South,11.5,-,0.03,Rain,Light Rain,180,2012-10-14 09:46:00
5:53 AM,64.9,62.1,90,29.73,6.0,South,10.4,-,0.04,Rain,Light Rain,190,2012-10-14 09:53:00
6:06 AM,64.4,62.6,94,29.73,4.0,SSW,5.8,-,0.06,Rain,Rain,200,2012-10-14 10:06:00
6:08 AM,64.4,62.6,94,29.73,4.0,South,6.9,-,0.07,Rain,Heavy Rain,180,2012-10-14 10:08:00
6:15 AM,64.4,62.6,94,29.73,4.0,South,9.2,-,0.10,Rain,Rain,180,2012-10-14 10:15:00
6:53 AM,66.0,62.1,87,29.72,7.0,South,10.4,-,0.19,Rain,Light Rain,190,2012-10-14 10:53:00
7:01 AM,66.2,62.6,88,29.72,7.0,South,12.7,18.4,0.02,Rain,Rain,190,2012-10-14 11:01:00
7:13 AM,66.2,62.6,88,29.71,6.0,South,10.4,-,0.05,Rain,Light Rain,190,2012-10-14 11:13:00
7:28 AM,66.2,62.6,88,29.70,10.0,South,9.2,-,0.06,Rain,Light Rain,190,2012-10-14 11:28:00
7:53 AM,64.9,62.1,90,29.68,9.0,South,8.1,-,0.06,,Mostly Cloudy,170,2012-10-14 11:53:00
8:53 AM,64.9,62.1,90,29.62,7.0,SE,11.5,-,0.00,Rain,Light Rain,130,2012-10-14 12:53:00
9:14 AM,66.2,62.6,88,29.62,5.0,SSE,11.5,18.4,0.03,Rain,Light Rain,160,2012-10-14 13:14:00
9:53 AM,66.0,62.1,87,29.59,10.0,South,13.8,-,0.04,,Overcast,170,2012-10-14 13:53:00
10:07 AM,66.2,62.6,88,29.59,10.0,South,12.7,-,N/A,,Overcast,170,2012-10-14 14:07:00
10:37 AM,66.2,62.6,88,29.58,10.0,South,12.7,20.7,N/A,,Mostly Cloudy,180,2012-10-14 14:37:00
10:53 AM,68.0,62.1,81,29.58,10.0,South,13.8,25.3,N/A,,Mostly Cloudy,190,2012-10-14 14:53:00
11:12 AM,68.0,62.6,83,29.58,10.0,SSW,13.8,20.7,N/A,,Overcast,200,2012-10-14 15:12:00
11:53 AM,68.0,61.0,78,29.58,10.0,SW,21.9,27.6,N/A,,Overcast,220,2012-10-14 15:53:00
12:11 PM,68.0,60.8,78,29.58,10.0,SSW,18.4,29.9,N/A,,Overcast,210,2012-10-14 16:11:00
12:53 PM,66.0,62.1,87,29.56,10.0,SW,12.7,24.2,0.02,Rain,Light Rain,220,2012-10-14 16:53:00
1:08 PM,66.2,62.6,88,29.56,10.0,SSW,16.1,24.2,N/A,,Mostly Cloudy,210,2012-10-14 17:08:00
1:33 PM,68.0,62.6,83,29.54,10.0,SSW,13.8,21.9,N/A,,Mostly Cloudy,210,2012-10-14 17:33:00
1:53 PM,68.0,61.0,78,29.52,10.0,SSW,17.3,23.0,0.00,,Overcast,210,2012-10-14 17:53:00
2:53 PM,68.0,62.1,81,29.48,10.0,SW,28.8,41.4,0.07,,Mostly Cloudy,220,2012-10-14 18:53:00
3:03 PM,68.0,60.8,78,29.49,10.0,SW,24.2,36.8,N/A,,Mostly Cloudy,220,2012-10-14 19:03:00
4:53 PM,69.1,57.9,68,29.43,10.0,SW,20.7,28.8,N/A,,Mostly Cloudy,220,2012-10-14 20:53:00
5:28 PM,69.8,57.2,64,29.43,10.0,SSW,16.1,27.6,N/A,Thunderstorm,Mostly Cloudy,210,2012-10-14 21:28:00
5:53 PM,60.1,55.9,86,29.45,2.5,WSW,17.3,31.1,0.25,Rain-Thunderstorm,Heavy Thunderstorms and Rain,250,2012-10-14 21:53:00
6:03 PM,60.8,55.4,82,29.45,6.0,WSW,17.3,25.3,0.04,Rain-Thunderstorm,Thunderstorms and Rain,250,2012-10-14 22:03:00
6:26 PM,59.0,55.4,88,29.45,10.0,WSW,17.3,25.3,0.09,Rain,Rain,250,2012-10-14 22:26:00
6:53 PM,59.0,55.0,87,29.44,10.0,WSW,9.2,-,0.13,Rain,Light Rain,250,2012-10-14 22:53:00
7:24 PM,59.0,55.4,88,29.43,10.0,West,8.1,-,0.05,Rain,Light Rain,260,2012-10-14 23:24:00
7:30 PM,59.0,55.4,88,29.44,10.0,West,13.8,19.6,0.05,Rain,Light Rain,270,2012-10-14 23:30:00
7:46 PM,55.4,51.8,88,29.44,10.0,NW,9.2,18.4,0.07,Rain,Light Rain,320,2012-10-14 23:46:00
7:53 PM,55.0,52.0,89,29.44,8.0,NW,11.5,23.0,0.08,Rain,Rain,310,2012-10-14 23:53:00
8:53 PM,53.1,50.0,89,29.48,9.0,NW,11.5,20.7,0.10,Rain,Light Rain,320,2012-10-15 00:53:00
9:53 PM,53.1,48.9,86,29.55,8.0,NW,17.3,32.2,0.04,Rain,Light Rain,310,2012-10-15 01:53:00
10:02 PM,53.6,48.2,82,29.55,9.0,NW,16.1,31.1,0.02,Rain,Light Rain,310,2012-10-15 02:02:00
10:39 PM,51.8,48.2,88,29.58,10.0,NW,17.3,31.1,0.04,Rain,Light Rain,310,2012-10-15 02:39:00
10:53 PM,52.0,48.0,86,29.60,10.0,NW,16.1,29.9,0.05,Rain,Light Rain,310,2012-10-15 02:53:00
11:10 PM,51.8,48.2,88,29.62,10.0,NW,13.8,27.6,0.01,Rain,Light Rain,310,2012-10-15 03:10:00
11:23 PM,51.8,46.4,82,29.63,10.0,WNW,13.8,26.5,0.02,Rain,Light Rain,300,2012-10-15 03:23:00
11:53 PM,51.1,46.9,86,29.63,8.0,WNW,13.8,24.2,0.04,Rain,Light Rain,300,2012-10-15 03:53:00